PA3DZX-13 Weather Reports


time (UTC)temp
C
wind
direction
speed
KPH
gust
KPH
rain 1hr
cm
rain 24hr
cm
rain mn
cm
humidity
%
barometer
mb
20260831000651 15 160 6.4 9.7 0.00 0.00 0.00 84 1009.6
20260830235151 15 155 6.4 9.7 0.00 0.00 0.00 83 1009.7
20260830233651 15 179 3.2 9.7 0.00 0.00 0.00 82 1009.7
20260830232150 16 180 6.4 9.7 0.00 0.00 0.00 81 1009.9
20260830230650 16 175 6.4 9.7 0.00 0.00 0.00 82 1010.0
20260830225150 15 176 6.4 9.7 0.00 0.00 0.00 84 1010.2
20260830223650 15 155 6.4 9.7 0.00 0.00 0.00 88 1010.4
20260830222149 15 150 6.4 9.7 0.00 0.00 0.00 87 1010.5
20260830220649 15 156 6.4 9.7 0.00 0.00 0.00 88 1010.7
20260830215149 15 151 6.4 9.7 0.00 0.00 0.00 88 1010.6
20260830213649 15 145 6.4 9.7 0.00 0.00 0.00 90 1010.8
20260830212148 15 153 6.4 6.4 0.00 0.00 0.00 93 1010.9
20260830210648 15 146 3.2 6.4 0.00 0.00 0.00 95 1011.1
20260830205148 15 150 3.2 6.4 0.00 0.00 0.00 94 1011.1
20260830203648 13 146 6.4 6.4 0.00 0.00 0.00 94 1011.1
20260830202148 13 146 6.4 6.4 0.00 0.00 0.00 94 1011.1
20260830200648 13 135 3.2 3.2 0.00 0.00 0.00 95 1011.2
20260830195147 15 57 0.0 0.0 0.00 0.00 0.00 95 1011.3
20260830193647 15 128 0.0 3.2 0.00 0.00 0.00 95 1011.4
20260830192146 15 129 0.0 3.2 0.00 0.00 0.00 95 1011.5
20260830190646 15 87 0.0 3.2 0.00 0.00 0.00 93 1011.4
20260830185146 16 192 3.2 6.4 0.00 0.00 0.00 87 1011.4
20260830183646 16 196 6.4 6.4 0.00 0.00 0.00 84 1011.4
20260830182145 17 197 6.4 9.7 0.00 0.00 0.00 83 1011.3
20260830180645 18 189 6.4 9.7 0.00 0.00 0.00 83 1011.3
20260830175144 18 172 3.2 6.4 0.00 0.00 0.00 88 1011.3
20260830173645 18 177 3.2 6.4 0.00 0.00 0.00 88 1011.4
20260830172144 18 181 3.2 3.2 0.00 0.00 0.00 89 1011.4
20260830170644 18 165 0.0 3.2 0.00 0.00 0.00 89 1011.4
20260830165143 18 178 3.2 6.4 0.00 0.00 0.00 88 1011.4
20260830163643 18 208 3.2 6.4 0.00 0.00 0.00 89 1011.5
20260830162142 18 241 6.4 9.7 0.13 0.00 0.00 87 1011.5
20260830160642 18 248 6.4 12.9 0.00 0.00 0.00 82 1011.4
20260830155142 20 267 6.4 12.9 0.00 0.00 0.00 84 1011.5
20260830153641 18 286 3.2 12.9 0.00 0.00 0.00 83 1011.5
20260830152140 17 271 6.4 20.9 0.00 0.00 0.00 86 1011.6
20260830150640 17 289 12.9 20.9 0.00 0.00 0.00 86 1011.6
20260830145139 18 237 9.7 20.9 0.00 0.00 0.00 85 1011.5
20260830143640 18 237 9.7 20.9 0.00 0.00 0.00 85 1011.5
20260830142139 18 214 6.4 17.7 0.00 0.00 0.00 88 1011.4
20260830140639 17 231 12.9 24.1 0.00 0.00 0.00 88 1011.4
20260830135138 16 239 17.7 35.4 0.03 0.00 0.00 91 1011.5
20260830133639 17 237 24.1 35.4 0.05 0.00 0.00 83 1011.4
20260830132138 18 213 17.7 38.6 0.00 0.00 0.00 76 1011.0
20260830130638 18 216 17.7 38.6 0.00 0.00 0.00 77 1010.9
20260830125138 18 208 17.7 32.2 0.00 0.00 0.00 80 1010.8
20260830123637 18 208 12.9 24.1 0.00 0.00 0.00 81 1010.7
20260830122136 18 216 17.7 35.4 0.00 0.00 0.00 83 1010.6
20260830120637 17 212 17.7 35.4 0.00 0.00 0.00 82 1010.5
20260830115136 17 214 20.9 35.4 0.00 0.00 0.00 82 1010.4
20260830113636 18 222 20.9 35.4 0.00 0.00 0.00 80 1010.2
20260830112135 18 215 20.9 35.4 0.00 0.00 0.00 78 1010.1
20260830110635 17 205 17.7 32.2 0.00 0.00 0.00 83 1010.1
20260830105134 17 201 20.9 32.2 0.00 0.00 0.00 84 1010.1
20260830103634 16 205 17.7 32.2 0.00 0.00 0.00 89 1010.0
20260830102134 16 207 17.7 27.4 0.00 0.00 0.00 91 1010.0
20260830100634 16 208 12.9 27.4 0.00 0.00 0.00 90 1009.9
20260830095132 16 214 17.7 32.2 0.00 0.00 0.00 87 1009.8
20260830093633 17 212 20.9 32.2 0.00 0.00 0.00 83 1009.7
20260830092131 17 216 20.9 38.6 0.00 0.00 0.00 82 1009.5
20260830090632 17 215 24.1 35.4 0.00 0.00 0.00 81 1009.2
20260830085131 17 212 17.7 32.2 0.00 0.00 0.00 84 1009.1
20260830083631 16 209 17.7 27.4 0.00 0.00 0.00 86 1009.0
20260830082130 15 214 17.7 32.2 0.00 0.00 0.00 90 1008.9
20260830080630 16 216 20.9 35.4 0.00 0.00 0.00 85 1008.7
20260830075130 16 218 17.7 32.2 0.00 0.00 0.00 82 1008.4
20260830073630 16 218 17.7 32.2 0.00 0.00 0.00 82 1008.4
20260830072129 16 218 20.9 35.4 0.00 0.00 0.00 82 1008.2
20260830070629 16 220 20.9 38.6 0.00 0.00 0.00 82 1007.9
20260830065128 16 214 20.9 35.4 0.00 0.00 0.00 82 1007.7
20260830063628 16 218 24.1 35.4 0.00 0.00 0.00 81 1007.6
20260830062128 16 213 17.7 32.2 0.00 0.00 0.00 83 1007.4
20260830060628 16 217 20.9 35.4 0.00 0.00 0.00 84 1007.2
20260830055127 16 214 20.9 32.2 0.00 0.00 0.00 84 1007.2
20260830053627 16 216 20.9 35.4 0.00 0.00 0.00 84 1007.0
20260830052127 16 219 20.9 35.4 0.00 0.00 0.00 83 1007.0
20260830050628 16 218 24.1 35.4 0.00 0.00 0.00 81 1006.8
20260830045126 16 215 24.1 38.6 0.00 0.00 0.00 79 1006.5
20260830043626 16 212 24.1 38.6 0.00 0.00 0.00 80 1006.4
20260830042126 16 210 24.1 38.6 0.00 0.00 0.00 78 1006.2
20260830040627 16 211 24.1 35.4 0.00 0.00 0.00 78 1006.2
20260830035125 17 215 24.1 35.4 0.00 0.00 0.00 78 1006.0
20260830033625 17 211 24.1 38.6 0.00 0.00 0.00 77 1005.9
20260830032125 17 211 24.1 46.7 0.00 0.00 0.00 78 1006.0
20260830030626 17 208 24.1 46.7 0.00 0.00 0.00 78 1005.9
20260830025125 17 208 24.1 41.8 0.00 0.00 0.00 77 1005.7
20260830023625 17 211 24.1 49.9 0.00 0.00 0.00 78 1005.5
20260830022125 17 213 24.1 46.7 0.00 0.00 0.00 80 1005.6
20260830020625 17 213 20.9 32.2 0.00 0.00 0.00 82 1005.6
20260830015125 17 212 20.9 38.6 0.00 0.00 0.00 83 1005.7
20260830013625 17 210 20.9 38.6 0.00 0.00 0.00 83 1005.5
20260830012125 17 209 20.9 38.6 0.00 0.00 0.00 85 1005.6
20260830010625 17 199 17.7 32.2 0.00 0.00 0.00 86 1005.5
20260830005124 17 201 17.7 32.2 0.00 0.00 0.00 86 1005.4
20260830003625 17 201 17.7 32.2 0.00 0.00 0.00 88 1005.5
20260830002124 17 200 17.7 32.2 0.00 0.00 0.00 87 1005.6